Hourly Data Report for September 03, 2017

All times are specified in Local Standard Time (LST). Add 1 hour to adjust for Daylight Saving Time where and when it is observed.

SANDY LAKE A
ONTARIO

53°03'51.000" N
93°20'40.000" W
289.90 m
6017401
71587
ZSJ

Related Data

No related data is available for this station

Download Data

Hourly Data (September 2017)
Hourly Data Report for September 3, 2017
Temp Definition
°C
Dew Point Temp Definition
°C
Rel Hum Definition
%
Wind Dir Definition
10's deg

Wind Spd Definition
km/h
Visibility Definition
km
Stn Press Definition
kPa
Hmdx Definition


Wind Chill Definition


Weather Definition


TIME
00:00 Legend Double Dagger 15.3 9.5 68 LegendMM LegendMM 16.1 97.06     LegendNANA
01:00 Legend Double Dagger 14.8 9.4 70 LegendMM LegendMM 16.1 97.05     LegendNANA
02:00 Legend Double Dagger 13.9 9.4 74 LegendMM LegendMM 16.1 97.07     LegendNANA
03:00 Legend Double Dagger 13.7 9.8 77 LegendMM LegendMM 16.1 97.06     LegendNANA
04:00 Legend Double Dagger 13.4 10.1 80 LegendMM LegendMM 16.1 97.05     LegendNANA
05:00 Legend Double Dagger 13.2 10.2 82 LegendMM LegendMM 16.1 97.08     LegendNANA
06:00 Legend Double Dagger 12.9 10.3 84 LegendMM LegendMM 16.1 97.08     LegendNANA
07:00 Legend Double Dagger 13.0 10.4 84 LegendMM LegendMM 16.1 97.04     LegendNANA
08:00 Legend Double Dagger 13.3 10.5 83 LegendMM LegendMM 16.1 97.02     LegendNANA
09:00 Legend Double Dagger 14.7 10.8 77 LegendMM LegendMM 16.1 97.02     LegendNANA
10:00 Legend Double Dagger 15.8 10.5 70 LegendMM LegendMM 16.1 97.00     LegendNANA
11:00 Legend Double Dagger 16.7 10.3 66 LegendMM LegendMM 16.1 96.96     LegendNANA
12:00 Legend Double Dagger 18.8 10.7 59 LegendMM LegendMM 16.1 96.93     LegendNANA
13:00 Legend Double Dagger 18.7 9.7 55 LegendMM LegendMM 16.1 96.90     LegendNANA
14:00 Legend Double Dagger 17.6 10.6 63 LegendMM LegendMM 16.1 96.90     LegendNANA
15:00 Legend Double Dagger 17.6 11.1 65 LegendMM LegendMM 16.1 96.89     LegendNANA
16:00 Legend Double Dagger 15.1 11.6 80 LegendMM LegendMM 16.1 96.92     LegendNANA
17:00 Legend Double Dagger 17.4 10.0 61 LegendMM LegendMM 16.1 96.90     LegendNANA
18:00 Legend Double Dagger 15.2 9.6 69 LegendMM LegendMM 16.1 96.93     LegendNANA
19:00 Legend Double Dagger 14.2 9.8 75 LegendMM LegendMM 16.1 96.92     LegendNANA
20:00 Legend Double Dagger 13.0 10.2 83 LegendMM LegendMM 16.1 96.94     LegendNANA
21:00 Legend Double Dagger 12.7 11.0 89 LegendMM LegendMM 16.1 96.97     Rain
22:00 Legend Double Dagger 11.4 10.0 91 LegendMM LegendMM 16.1 97.00     LegendNANA
23:00 Legend Double Dagger 10.6 9.8 95 LegendMM LegendMM 16.1 97.00     LegendNANA

Notes on Data Quality.

Legend

  • E = Estimated
  • M = Missing
  • NA = Not Available
  • ‡ = Partner data that is not subject to review by the National Climate Archives
Date modified: